Time,TemperatureF,DewpointF,PressureIn,WindDirection,WindDirectionDegrees,WindSpeedMPH,WindSpeedGustMPH,Humidity,HourlyPrecipIn,Conditions,Clouds,dailyrainin,SoftwareType,DateUTC
2013-10-08 00:01:00,55.5,49.6,29.74,West,270,0.0,0.0,81,-99.99,,,-99.99,WSDL version 423,2013-10-08 05:01:00,
2013-10-08 00:06:00,55.4,49.6,29.74,West,270,0.0,0.0,81,-99.99,,,-99.99,WSDL version 423,2013-10-08 05:06:00,
2013-10-08 00:11:00,55.4,49.6,29.74,West,270,0.0,0.0,81,-99.99,,,-99.99,WSDL version 423,2013-10-08 05:11:00,
2013-10-08 00:16:00,55.2,49.4,29.71,West,270,0.0,0.0,81,-99.99,,,-99.99,WSDL version 423,2013-10-08 05:16:00,
2013-10-08 00:21:00,55.2,49.4,29.71,West,270,0.0,0.0,81,-99.99,,,-99.99,WSDL version 423,2013-10-08 05:21:00,
2013-10-08 00:26:00,55.3,49.4,29.71,West,270,0.0,0.0,80,-99.99,,,-99.99,WSDL version 423,2013-10-08 05:26:00,
2013-10-08 00:31:00,55.6,49.5,29.71,NW,315,0.0,0.0,80,-99.99,,,-99.99,WSDL version 423,2013-10-08 05:31:00,
2013-10-08 00:36:00,55.9,49.9,29.71,NW,315,0.0,0.0,81,-99.99,,,-99.99,WSDL version 423,2013-10-08 05:36:00,
2013-10-08 00:41:00,56.1,50.3,29.71,NW,315,0.0,0.0,81,-99.99,,,-99.99,WSDL version 423,2013-10-08 05:41:00,
2013-10-08 00:46:00,56.3,50.4,29.71,NW,315,0.0,0.0,80,-99.99,,,-99.99,WSDL version 423,2013-10-08 05:46:00,
2013-10-08 00:51:00,56.4,50.1,29.71,NW,315,0.0,0.0,79,-99.99,,,-99.99,WSDL version 423,2013-10-08 05:51:00,
2013-10-08 00:56:00,56.1,49.6,29.71,NW,315,0.0,0.0,79,-99.99,,,-99.99,WSDL version 423,2013-10-08 05:56:00,
2013-10-08 01:01:00,55.9,49.4,29.71,NW,315,0.0,0.0,79,-99.99,,,-99.99,WSDL version 423,2013-10-08 06:01:00,
2013-10-08 01:06:00,55.7,49.3,29.71,NW,315,0.0,0.0,79,-99.99,,,-99.99,WSDL version 423,2013-10-08 06:06:00,
2013-10-08 01:11:00,55.6,49.2,29.71,NW,315,0.0,0.0,79,-99.99,,,-99.99,WSDL version 423,2013-10-08 06:11:00,
2013-10-08 01:16:00,55.4,48.9,29.71,NW,315,0.0,0.0,79,-99.99,,,-99.99,WSDL version 423,2013-10-08 06:16:00,
2013-10-08 01:21:00,55.2,48.8,29.71,NW,315,0.0,0.0,79,-99.99,,,-99.99,WSDL version 423,2013-10-08 06:21:00,
2013-10-08 01:26:00,55.2,48.7,29.71,NW,315,0.0,0.0,79,-99.99,,,-99.99,WSDL version 423,2013-10-08 06:26:00,
2013-10-08 01:31:00,55.0,48.5,29.71,NW,315,0.0,0.0,79,-99.99,,,-99.99,WSDL version 423,2013-10-08 06:31:00,
2013-10-08 01:36:00,54.8,48.4,29.71,NW,315,0.0,0.0,79,-99.99,,,-99.99,WSDL version 423,2013-10-08 06:36:00,
2013-10-08 01:41:00,54.9,48.7,29.71,NW,315,0.0,0.0,80,-99.99,,,-99.99,WSDL version 423,2013-10-08 06:41:00,
2013-10-08 01:46:00,54.8,48.6,29.74,NW,315,0.0,0.0,79,-99.99,,,-99.99,WSDL version 423,2013-10-08 06:46:00,
2013-10-08 01:51:00,54.8,48.6,29.74,NW,315,0.0,0.0,80,-99.99,,,-99.99,WSDL version 423,2013-10-08 06:51:00,
2013-10-08 01:56:00,54.8,48.7,29.74,NW,315,0.0,0.0,80,-99.99,,,-99.99,WSDL version 423,2013-10-08 06:56:00,
2013-10-08 02:01:00,54.7,48.6,29.71,NW,315,0.0,0.0,80,-99.99,,,-99.99,WSDL version 423,2013-10-08 07:01:00,
2013-10-08 02:06:00,54.7,48.5,29.71,NW,315,0.0,0.0,80,-99.99,,,-99.99,WSDL version 423,2013-10-08 07:06:00,
2013-10-08 02:11:00,54.5,48.4,29.71,NW,315,0.0,0.0,80,-99.99,,,-99.99,WSDL version 423,2013-10-08 07:11:00,
2013-10-08 02:16:00,54.4,48.3,29.71,NW,315,0.0,0.0,80,-99.99,,,-99.99,WSDL version 423,2013-10-08 07:16:00,
2013-10-08 02:21:00,54.3,48.5,29.71,NW,315,0.0,0.0,81,-99.99,,,-99.99,WSDL version 423,2013-10-08 07:21:00,
2013-10-08 02:26:00,54.3,48.5,29.71,NW,315,0.0,0.0,81,-99.99,,,-99.99,WSDL version 423,2013-10-08 07:26:00,
2013-10-08 02:31:00,54.2,48.4,29.71,NW,315,0.0,0.0,81,-99.99,,,-99.99,WSDL version 423,2013-10-08 07:31:00,
2013-10-08 02:36:00,54.1,48.3,29.71,NW,315,0.0,0.0,81,-99.99,,,-99.99,WSDL version 423,2013-10-08 07:36:00,
2013-10-08 02:41:00,54.1,48.2,29.71,NW,315,0.0,0.0,80,-99.99,,,-99.99,WSDL version 423,2013-10-08 07:41:00,
2013-10-08 02:46:00,53.9,48.1,29.71,NW,315,0.0,0.0,80,-99.99,,,-99.99,WSDL version 423,2013-10-08 07:46:00,
2013-10-08 02:51:00,53.9,47.9,29.71,NW,315,0.0,0.0,80,-99.99,,,-99.99,WSDL version 423,2013-10-08 07:51:00,
2013-10-08 02:56:00,54.1,48.1,29.71,NW,315,0.0,0.0,80,-99.99,,,-99.99,WSDL version 423,2013-10-08 07:56:00,
2013-10-08 03:01:00,54.1,48.1,29.71,NW,315,0.0,0.0,80,-99.99,,,-99.99,WSDL version 423,2013-10-08 08:01:00,
2013-10-08 03:06:00,54.1,48.1,29.71,NW,315,0.0,0.0,80,-99.99,,,-99.99,WSDL version 423,2013-10-08 08:06:00,
2013-10-08 03:11:00,54.3,48.3,29.71,NW,310,0.0,0.0,80,-99.99,,,-99.99,WSDL version 423,2013-10-08 08:11:00,
2013-10-08 03:16:00,54.5,48.6,29.71,WNW,293,0.0,0.0,80,-99.99,,,-99.99,WSDL version 423,2013-10-08 08:16:00,
2013-10-08 03:21:00,54.5,48.4,29.71,NW,315,0.0,0.0,80,-99.99,,,-99.99,WSDL version 423,2013-10-08 08:21:00,
2013-10-08 03:26:00,54.4,48.6,29.71,NW,315,0.0,0.0,81,-99.99,,,-99.99,WSDL version 423,2013-10-08 08:26:00,
2013-10-08 03:31:00,54.3,48.5,29.74,NW,315,0.0,0.0,81,-99.99,,,-99.99,WSDL version 423,2013-10-08 08:31:00,
2013-10-08 03:36:00,54.3,48.5,29.74,NW,315,0.0,0.0,81,-99.99,,,-99.99,WSDL version 423,2013-10-08 08:36:00,
2013-10-08 03:41:00,54.3,48.5,29.74,NW,315,0.0,0.0,81,-99.99,,,-99.99,WSDL version 423,2013-10-08 08:41:00,
2013-10-08 03:46:00,54.2,48.4,29.71,NW,315,0.0,0.0,81,-99.99,,,-99.99,WSDL version 423,2013-10-08 08:46:00,
2013-10-08 03:51:00,54.1,48.3,29.71,NW,315,0.0,0.0,81,-99.99,,,-99.99,WSDL version 423,2013-10-08 08:51:00,
2013-10-08 03:56:00,54.1,48.3,29.71,NW,315,0.0,0.0,81,-99.99,,,-99.99,WSDL version 423,2013-10-08 08:56:00,
2013-10-08 04:01:00,53.9,48.0,29.74,NW,315,0.0,0.0,81,-99.99,,,-99.99,WSDL version 423,2013-10-08 09:01:00,
2013-10-08 04:06:00,53.9,48.1,29.74,NW,315,0.0,0.0,81,-99.99,,,-99.99,WSDL version 423,2013-10-08 09:06:00,
2013-10-08 04:11:00,53.8,48.0,29.74,NW,315,0.0,0.0,81,-99.99,,,-99.99,WSDL version 423,2013-10-08 09:11:00,
2013-10-08 04:16:00,53.8,48.0,29.74,NW,315,0.0,0.0,81,-99.99,,,-99.99,WSDL version 423,2013-10-08 09:16:00,
2013-10-08 04:21:00,53.6,47.9,29.74,NW,315,0.0,0.0,81,-99.99,,,-99.99,WSDL version 423,2013-10-08 09:21:00,
2013-10-08 04:26:00,53.5,47.7,29.74,NW,315,0.0,0.0,81,-99.99,,,-99.99,WSDL version 423,2013-10-08 09:26:00,
2013-10-08 04:31:00,53.2,47.3,29.74,NW,315,0.0,0.0,80,-99.99,,,-99.99,WSDL version 423,2013-10-08 09:31:00,
2013-10-08 04:36:00,53.0,47.1,29.74,NW,315,0.0,0.0,81,-99.99,,,-99.99,WSDL version 423,2013-10-08 09:36:00,
2013-10-08 04:41:00,53.0,47.4,29.74,NW,315,0.0,0.0,81,-99.99,,,-99.99,WSDL version 423,2013-10-08 09:41:00,
2013-10-08 04:46:00,53.0,47.4,29.74,NW,315,0.0,0.0,81,-99.99,,,-99.99,WSDL version 423,2013-10-08 09:46:00,
2013-10-08 04:51:00,52.8,47.1,29.74,NW,315,0.0,0.0,81,-99.99,,,-99.99,WSDL version 423,2013-10-08 09:51:00,
2013-10-08 04:56:00,52.7,47.1,29.74,NW,315,0.0,0.0,81,-99.99,,,-99.99,WSDL version 423,2013-10-08 09:56:00,
2013-10-08 05:01:00,52.7,47.2,29.74,NW,315,0.0,0.0,82,-99.99,,,-99.99,WSDL version 423,2013-10-08 10:01:00,
2013-10-08 05:06:00,52.7,47.4,29.74,NW,315,0.0,0.0,82,-99.99,,,-99.99,WSDL version 423,2013-10-08 10:06:00,
2013-10-08 05:11:00,52.4,47.1,29.74,NW,315,0.0,0.0,82,-99.99,,,-99.99,WSDL version 423,2013-10-08 10:11:00,
2013-10-08 05:16:00,52.1,46.9,29.74,NW,315,0.0,0.0,82,-99.99,,,-99.99,WSDL version 423,2013-10-08 10:16:00,
2013-10-08 05:21:00,51.9,46.6,29.74,NW,315,0.0,0.0,82,-99.99,,,-99.99,WSDL version 423,2013-10-08 10:21:00,
2013-10-08 05:26:00,51.6,46.4,29.74,NW,315,0.0,0.0,82,-99.99,,,-99.99,WSDL version 423,2013-10-08 10:26:00,
2013-10-08 05:31:00,51.6,46.7,29.74,NW,315,0.0,0.0,83,-99.99,,,-99.99,WSDL version 423,2013-10-08 10:31:00,
2013-10-08 05:36:00,51.4,46.9,29.74,NW,315,0.0,0.0,84,-99.99,,,-99.99,WSDL version 423,2013-10-08 10:36:00,
2013-10-08 05:41:00,51.4,46.9,29.74,NW,315,0.0,0.0,84,-99.99,,,-99.99,WSDL version 423,2013-10-08 10:41:00,
2013-10-08 05:46:00,51.2,46.9,29.74,NW,315,0.0,0.0,86,-99.99,,,-99.99,WSDL version 423,2013-10-08 10:46:00,
2013-10-08 05:51:00,51.2,47.1,29.74,NW,315,0.0,0.0,86,-99.99,,,-99.99,WSDL version 423,2013-10-08 10:51:00,
2013-10-08 05:56:00,51.2,47.1,29.74,NW,315,0.0,0.0,86,-99.99,,,-99.99,WSDL version 423,2013-10-08 10:56:00,
2013-10-08 06:01:00,51.2,47.4,29.74,NW,315,0.0,0.0,87,-99.99,,,-99.99,WSDL version 423,2013-10-08 11:01:00,
2013-10-08 06:06:00,51.2,47.4,29.74,NW,315,0.0,0.0,87,-99.99,,,-99.99,WSDL version 423,2013-10-08 11:06:00,
2013-10-08 06:11:00,51.2,47.4,29.74,NW,315,0.0,0.0,87,-99.99,,,-99.99,WSDL version 423,2013-10-08 11:11:00,
2013-10-08 06:16:00,51.2,47.4,29.74,NW,315,0.0,0.0,87,-99.99,,,-99.99,WSDL version 423,2013-10-08 11:16:00,
2013-10-08 06:21:00,51.2,47.4,29.74,NW,315,0.0,0.0,87,-99.99,,,-99.99,WSDL version 423,2013-10-08 11:21:00,
2013-10-08 06:26:00,51.2,47.6,29.74,NW,315,0.0,0.0,88,-99.99,,,-99.99,WSDL version 423,2013-10-08 11:26:00,
2013-10-08 06:31:00,51.2,47.5,29.74,NW,315,0.0,0.0,87,-99.99,,,-99.99,WSDL version 423,2013-10-08 11:31:00,
2013-10-08 06:36:00,51.2,47.4,29.74,NW,315,0.0,0.0,87,-99.99,,,-99.99,WSDL version 423,2013-10-08 11:36:00,
2013-10-08 06:41:00,51.2,47.6,29.74,North,360,0.0,0.0,88,-99.99,,,-99.99,WSDL version 423,2013-10-08 11:41:00,
2013-10-08 06:46:00,51.3,47.9,29.74,NNE,23,0.0,0.0,89,-99.99,,,-99.99,WSDL version 423,2013-10-08 11:46:00,
2013-10-08 06:51:00,51.4,48.3,29.74,NNE,23,0.0,0.0,89,-99.99,,,-99.99,WSDL version 423,2013-10-08 11:51:00,
2013-10-08 06:56:00,51.5,48.4,29.74,NNW,329,0.0,0.0,89,-99.99,,,-99.99,WSDL version 423,2013-10-08 11:56:00,
2013-10-08 07:01:00,51.6,48.4,29.77,NNW,333,0.0,0.0,89,-99.99,,,-99.99,WSDL version 423,2013-10-08 12:01:00,
2013-10-08 07:06:00,51.8,48.6,29.77,NW,323,0.0,0.0,89,-99.99,,,-99.99,WSDL version 423,2013-10-08 12:06:00,
2013-10-08 07:11:00,51.9,48.8,29.77,NW,305,0.0,0.0,89,-99.99,,,-99.99,WSDL version 423,2013-10-08 12:11:00,
2013-10-08 07:16:00,52.1,48.9,29.77,NW,309,0.0,0.0,89,-99.99,,,-99.99,WSDL version 423,2013-10-08 12:16:00,
2013-10-08 07:21:00,52.2,49.0,29.77,NW,326,0.0,0.0,89,-99.99,,,-99.99,WSDL version 423,2013-10-08 12:21:00,
2013-10-08 07:26:00,52.4,49.0,29.77,NW,318,0.0,0.0,88,-99.99,,,-99.99,WSDL version 423,2013-10-08 12:26:00,
2013-10-08 07:31:00,52.6,49.1,29.77,NW,315,0.0,0.0,88,-99.99,,,-99.99,WSDL version 423,2013-10-08 12:31:00,
2013-10-08 07:36:00,52.7,49.1,29.77,NNW,338,0.0,0.0,87,-99.99,,,-99.99,WSDL version 423,2013-10-08 12:36:00,
2013-10-08 07:41:00,52.9,49.1,29.77,NW,315,0.0,0.0,87,-99.99,,,-99.99,WSDL version 423,2013-10-08 12:41:00,
2013-10-08 07:46:00,53.1,49.2,29.77,NNW,333,0.0,0.0,87,-99.99,,,-99.99,WSDL version 423,2013-10-08 12:46:00,
2013-10-08 07:51:00,53.3,49.4,29.77,NNW,348,0.0,0.0,87,-99.99,,,-99.99,WSDL version 423,2013-10-08 12:51:00,
2013-10-08 07:56:00,53.6,49.4,29.77,North,3,0.0,0.0,86,-99.99,,,-99.99,WSDL version 423,2013-10-08 12:56:00,
2013-10-08 08:01:00,53.9,49.6,29.77,NNW,338,0.0,0.0,86,-99.99,,,-99.99,WSDL version 423,2013-10-08 13:01:00,
2013-10-08 08:06:00,54.1,49.8,29.77,NW,318,0.0,0.0,84,-99.99,,,-99.99,WSDL version 423,2013-10-08 13:06:00,
2013-10-08 08:12:00,54.5,50.0,29.77,NW,315,0.0,0.0,84,-99.99,,,-99.99,WSDL version 423,2013-10-08 13:12:00,
2013-10-08 08:17:00,54.8,50.0,29.77,NNW,348,0.0,0.0,83,-99.99,,,-99.99,WSDL version 423,2013-10-08 13:17:00,
2013-10-08 08:22:00,55.2,50.2,29.77,NW,305,0.0,0.0,83,-99.99,,,-99.99,WSDL version 423,2013-10-08 13:22:00,
2013-10-08 08:27:00,55.5,50.3,29.77,NW,315,0.0,0.0,82,-99.99,,,-99.99,WSDL version 423,2013-10-08 13:27:00,
2013-10-08 08:32:00,55.8,50.5,29.77,NW,313,0.0,0.0,82,-99.99,,,-99.99,WSDL version 423,2013-10-08 13:32:00,
2013-10-08 08:37:00,56.2,50.5,29.77,NW,304,0.0,0.0,81,-99.99,,,-99.99,WSDL version 423,2013-10-08 13:37:00,
2013-10-08 08:42:00,56.6,50.7,29.77,NW,315,0.0,0.0,80,-99.99,,,-99.99,WSDL version 423,2013-10-08 13:42:00,
2013-10-08 08:49:00,57.3,51.2,29.77,North,5,0.0,0.0,81,-99.99,,,-99.99,WSDL version 423,2013-10-08 13:49:00,
2013-10-08 08:54:00,58.0,52.1,29.77,SSE,148,0.0,0.0,81,-99.99,,,-99.99,WSDL version 423,2013-10-08 13:54:00,
2013-10-08 08:59:00,58.9,52.8,29.77,North,349,0.0,0.0,79,-99.99,,,-99.99,WSDL version 423,2013-10-08 13:59:00,
2013-10-08 09:04:00,59.7,52.0,29.77,North,10,0.0,0.0,76,-99.99,,,-99.99,WSDL version 423,2013-10-08 14:04:00,
2013-10-08 09:09:00,60.6,52.7,29.77,NNE,17,0.0,0.0,75,-99.99,,,-99.99,WSDL version 423,2013-10-08 14:09:00,
2013-10-08 09:14:00,61.7,52.3,29.77,NNE,20,0.0,0.0,72,-99.99,,,-99.99,WSDL version 423,2013-10-08 14:14:00,
2013-10-08 09:19:00,63.1,53.3,29.77,North,352,0.0,0.0,67,-99.99,,,-99.99,WSDL version 423,2013-10-08 14:19:00,
2013-10-08 09:24:00,64.4,51.7,29.77,NNW,335,0.0,0.0,64,-99.99,,,-99.99,WSDL version 423,2013-10-08 14:24:00,
2013-10-08 09:29:00,65.6,53.2,29.77,North,10,0.0,0.0,64,-99.99,,,-99.99,WSDL version 423,2013-10-08 14:29:00,
2013-10-08 09:34:00,66.4,50.4,29.77,NNW,346,0.0,0.0,57,-99.99,,,-99.99,WSDL version 423,2013-10-08 14:34:00,
2013-10-08 09:39:00,67.1,49.0,29.77,North,358,0.0,0.0,54,-99.99,,,-99.99,WSDL version 423,2013-10-08 14:39:00,
2013-10-08 09:44:00,68.2,50.1,29.77,North,360,0.0,0.0,51,-99.99,,,-99.99,WSDL version 423,2013-10-08 14:44:00,
2013-10-08 09:49:00,68.9,49.7,29.77,NNW,340,0.0,0.0,50,-99.99,,,-99.99,WSDL version 423,2013-10-08 14:49:00,
2013-10-08 09:54:00,69.5,49.2,29.77,NE,37,0.0,0.0,48,-99.99,,,-99.99,WSDL version 423,2013-10-08 14:54:00,
2013-10-08 09:59:00,69.9,49.2,29.77,NNW,345,0.0,0.0,48,-99.99,,,-99.99,WSDL version 423,2013-10-08 14:59:00,
2013-10-08 10:04:00,70.7,47.9,29.77,NW,315,0.0,0.0,43,-99.99,,,-99.99,WSDL version 423,2013-10-08 15:04:00,
2013-10-08 10:09:00,71.5,47.8,29.77,NNW,348,0.0,0.0,39,-99.99,,,-99.99,WSDL version 423,2013-10-08 15:09:00,
2013-10-08 10:14:00,71.8,46.3,29.77,North,355,0.0,0.0,40,-99.99,,,-99.99,WSDL version 423,2013-10-08 15:14:00,
2013-10-08 10:20:00,72.6,46.3,29.77,NW,315,0.0,0.0,35,-99.99,,,-99.99,WSDL version 423,2013-10-08 15:20:00,
2013-10-08 10:25:00,72.8,45.3,29.77,NW,326,0.0,0.0,38,-99.99,,,-99.99,WSDL version 423,2013-10-08 15:25:00,
2013-10-08 10:30:00,72.6,42.1,29.80,NNW,335,0.0,0.0,31,-99.99,,,-99.99,WSDL version 423,2013-10-08 15:30:00,
2013-10-08 10:35:00,73.1,43.2,29.80,North,350,0.0,0.0,35,-99.99,,,-99.99,WSDL version 423,2013-10-08 15:35:00,
2013-10-08 10:40:00,73.5,42.4,29.80,North,3,0.0,0.0,30,-99.99,,,-99.99,WSDL version 423,2013-10-08 15:40:00,
2013-10-08 10:45:00,73.8,42.0,29.80,NE,55,0.0,0.0,31,-99.99,,,-99.99,WSDL version 423,2013-10-08 15:45:00,
2013-10-08 10:50:00,74.6,42.3,29.77,NNW,329,0.0,0.0,31,-99.99,,,-99.99,WSDL version 423,2013-10-08 15:50:00,
2013-10-08 10:55:00,74.4,40.8,29.77,NNW,329,0.0,0.0,30,-99.99,,,-99.99,WSDL version 423,2013-10-08 15:55:00,
2013-10-08 11:00:00,74.3,40.8,29.77,North,352,0.0,0.0,31,-99.99,,,-99.99,WSDL version 423,2013-10-08 16:00:00,
2013-10-08 11:05:00,74.7,40.4,29.77,NNW,333,0.0,0.0,29,-99.99,,,-99.99,WSDL version 423,2013-10-08 16:05:00,
2013-10-08 11:10:00,74.7,39.8,29.77,NNW,343,0.0,0.0,28,-99.99,,,-99.99,WSDL version 423,2013-10-08 16:10:00,
2013-10-08 11:15:00,75.3,40.8,29.77,NW,323,0.0,0.0,29,-99.99,,,-99.99,WSDL version 423,2013-10-08 16:15:00,
2013-10-08 11:20:00,76.2,41.3,29.77,North,352,0.0,0.0,28,-99.99,,,-99.99,WSDL version 423,2013-10-08 16:20:00,
2013-10-08 11:25:00,76.9,41.3,29.77,NNW,338,0.0,0.0,28,-99.99,,,-99.99,WSDL version 423,2013-10-08 16:25:00,
2013-10-08 11:30:00,76.6,40.3,29.77,North,358,0.0,0.0,27,-99.99,,,-99.99,WSDL version 423,2013-10-08 16:30:00,
2013-10-08 11:35:00,77.2,40.8,29.77,NNW,338,0.0,0.0,27,-99.99,,,-99.99,WSDL version 423,2013-10-08 16:35:00,
2013-10-08 11:40:00,77.3,40.7,29.77,NNW,328,0.0,0.0,27,-99.99,,,-99.99,WSDL version 423,2013-10-08 16:40:00,
2013-10-08 11:45:00,76.5,37.7,29.77,NNW,329,0.0,0.0,27,-99.99,,,-99.99,WSDL version 423,2013-10-08 16:45:00,
2013-10-08 11:50:00,77.0,39.0,29.77,NW,321,0.0,0.0,24,-99.99,,,-99.99,WSDL version 423,2013-10-08 16:50:00,
2013-10-08 11:55:00,76.7,37.3,29.77,WNW,303,0.0,0.0,24,-99.99,,,-99.99,WSDL version 423,2013-10-08 16:55:00,
2013-10-08 13:09:00,80.1,38.1,29.74,NNW,330,0.0,0.0,21,0.00,,,0.00,WSDL version 423,2013-10-08 18:09:00,
2013-10-08 13:14:00,78.5,35.3,29.74,NNW,347,0.0,0.0,21,0.00,,,0.00,WSDL version 423,2013-10-08 18:14:00,
2013-10-08 13:19:00,78.4,35.3,29.74,NNW,335,0.0,0.0,21,0.00,,,0.00,WSDL version 423,2013-10-08 18:19:00,
2013-10-08 13:24:00,78.5,35.3,29.74,North,3,0.0,0.0,21,0.00,,,0.00,WSDL version 423,2013-10-08 18:24:00,
2013-10-08 13:29:00,78.3,35.2,29.74,NNW,330,0.0,0.0,21,0.00,,,0.00,WSDL version 423,2013-10-08 18:29:00,
2013-10-08 13:34:00,78.0,35.0,29.74,NNW,329,0.0,0.0,21,0.00,,,0.00,WSDL version 423,2013-10-08 18:34:00,
2013-10-08 13:39:00,77.5,35.3,29.74,NW,323,0.0,0.0,22,0.00,,,0.00,WSDL version 423,2013-10-08 18:39:00,
2013-10-08 13:44:00,76.7,35.1,29.74,NNW,338,0.0,0.0,22,0.00,,,0.00,WSDL version 423,2013-10-08 18:44:00,
2013-10-08 13:49:00,77.3,35.3,29.71,NNE,14,0.0,0.0,21,0.00,,,0.00,WSDL version 423,2013-10-08 18:49:00,
2013-10-08 13:54:00,77.6,35.2,29.71,NNW,330,0.0,0.0,21,0.00,,,0.00,WSDL version 423,2013-10-08 18:54:00,
2013-10-08 13:59:00,77.3,35.5,29.71,NNW,329,0.0,0.0,22,0.00,,,0.00,WSDL version 423,2013-10-08 18:59:00,
2013-10-08 14:04:00,77.7,35.1,29.74,NW,318,0.0,0.0,21,0.00,,,0.00,WSDL version 423,2013-10-08 19:04:00,
2013-10-08 14:09:00,78.2,35.1,29.74,NW,315,0.0,0.0,21,0.00,,,0.00,WSDL version 423,2013-10-08 19:09:00,
2013-10-08 14:14:00,77.8,34.8,29.74,NW,310,0.0,0.0,21,0.00,,,0.00,WSDL version 423,2013-10-08 19:14:00,
2013-10-08 14:19:00,77.8,34.9,29.71,NNW,340,0.0,0.0,21,0.00,,,0.00,WSDL version 423,2013-10-08 19:19:00,
2013-10-08 14:24:00,78.5,35.3,29.71,NNE,16,0.0,0.0,21,0.00,,,0.00,WSDL version 423,2013-10-08 19:24:00,
2013-10-08 14:29:00,78.3,35.2,29.71,NNW,343,0.0,0.0,21,0.00,,,0.00,WSDL version 423,2013-10-08 19:29:00,
2013-10-08 14:34:00,77.9,34.9,29.71,NW,325,0.0,0.0,21,0.00,,,0.00,WSDL version 423,2013-10-08 19:34:00,
2013-10-08 14:39:00,77.9,35.1,29.71,NW,310,0.0,0.0,22,0.00,,,0.00,WSDL version 423,2013-10-08 19:39:00,
2013-10-08 14:44:00,77.4,35.6,29.71,WNW,301,0.0,0.0,22,0.00,,,0.00,WSDL version 423,2013-10-08 19:44:00,
2013-10-08 14:49:00,77.6,35.0,29.71,NW,323,0.0,0.0,22,0.00,,,0.00,WSDL version 423,2013-10-08 19:49:00,
2013-10-08 14:54:00,77.6,35.2,29.71,NNW,332,0.0,0.0,21,0.00,,,0.00,WSDL version 423,2013-10-08 19:54:00,
2013-10-08 14:59:00,77.7,34.7,29.71,North,360,0.0,0.0,21,0.00,,,0.00,WSDL version 423,2013-10-08 19:59:00,
2013-10-08 15:04:00,77.5,35.3,29.71,NNW,330,0.0,0.0,22,0.00,,,0.00,WSDL version 423,2013-10-08 20:04:00,
2013-10-08 15:09:00,77.4,35.6,29.71,North,352,0.0,0.0,22,0.00,,,0.00,WSDL version 423,2013-10-08 20:09:00,
2013-10-08 15:14:00,77.3,35.6,29.71,NE,34,0.0,0.0,22,0.00,,,0.00,WSDL version 423,2013-10-08 20:14:00,
2013-10-08 15:19:00,77.4,35.6,29.71,SE,127,0.0,0.0,22,0.00,,,0.00,WSDL version 423,2013-10-08 20:19:00,
2013-10-08 15:24:00,77.4,35.4,29.71,NW,315,0.0,0.0,22,0.00,,,0.00,WSDL version 423,2013-10-08 20:24:00,
2013-10-08 15:29:00,77.1,35.4,29.71,NW,325,0.0,0.0,22,0.00,,,0.00,WSDL version 423,2013-10-08 20:29:00,
2013-10-08 15:34:00,77.0,35.3,29.71,NW,323,0.0,0.0,22,0.00,,,0.00,WSDL version 423,2013-10-08 20:34:00,
2013-10-08 15:39:00,77.0,35.3,29.71,NNW,330,0.0,0.0,22,0.00,,,0.00,WSDL version 423,2013-10-08 20:39:00,
2013-10-08 15:44:00,77.3,35.6,29.71,NNW,338,0.0,0.0,22,0.00,,,0.00,WSDL version 423,2013-10-08 20:44:00,
2013-10-08 15:49:00,77.3,35.5,29.71,NW,325,0.0,0.0,22,0.00,,,0.00,WSDL version 423,2013-10-08 20:49:00,
2013-10-08 15:54:00,77.3,35.6,29.71,North,3,0.0,0.0,22,0.00,,,0.00,WSDL version 423,2013-10-08 20:54:00,
2013-10-08 15:59:00,77.5,35.5,29.71,NW,320,0.0,0.0,22,0.00,,,0.00,WSDL version 423,2013-10-08 20:59:00,
2013-10-08 16:04:00,77.3,35.5,29.68,NNW,335,0.0,0.0,22,0.00,,,0.00,WSDL version 423,2013-10-08 21:04:00,
2013-10-08 16:09:00,77.0,35.3,29.68,NW,319,0.0,0.0,22,0.00,,,0.00,WSDL version 423,2013-10-08 21:09:00,
2013-10-08 16:14:00,76.8,35.1,29.68,NE,40,0.0,0.0,22,0.00,,,0.00,WSDL version 423,2013-10-08 21:14:00,
2013-10-08 16:19:00,76.7,35.0,29.68,North,6,0.0,0.0,22,0.00,,,0.00,WSDL version 423,2013-10-08 21:19:00,
2013-10-08 16:24:00,76.8,35.1,29.68,NW,323,0.0,0.0,22,0.00,,,0.00,WSDL version 423,2013-10-08 21:24:00,
2013-10-08 16:29:00,76.8,35.1,29.68,NNW,335,0.0,0.0,22,0.00,,,0.00,WSDL version 423,2013-10-08 21:29:00,
2013-10-08 16:34:00,76.4,34.8,29.68,NNW,329,0.0,0.0,22,0.00,,,0.00,WSDL version 423,2013-10-08 21:34:00,
2013-10-08 16:39:00,76.2,34.6,29.68,North,8,0.0,0.0,22,0.00,,,0.00,WSDL version 423,2013-10-08 21:39:00,
2013-10-08 16:44:00,76.0,34.5,29.68,North,352,0.0,0.0,22,0.00,,,0.00,WSDL version 423,2013-10-08 21:44:00,
2013-10-08 16:49:00,75.7,34.2,29.68,NNW,329,0.0,0.0,22,0.00,,,0.00,WSDL version 423,2013-10-08 21:49:00,
2013-10-08 16:54:00,75.8,34.2,29.68,NNW,329,0.0,0.0,22,0.00,,,0.00,WSDL version 423,2013-10-08 21:54:00,
2013-10-08 16:59:00,75.8,34.3,29.68,NNW,338,0.0,0.0,22,0.00,,,0.00,WSDL version 423,2013-10-08 21:59:00,
2013-10-08 17:04:00,75.8,34.3,29.68,NNW,343,0.0,0.0,22,0.00,,,0.00,WSDL version 423,2013-10-08 22:04:00,
2013-10-08 17:09:00,75.7,34.2,29.68,NW,315,0.0,0.0,22,0.00,,,0.00,WSDL version 423,2013-10-08 22:09:00,
2013-10-08 17:14:00,75.2,33.8,29.68,NNW,330,0.0,0.0,22,0.00,,,0.00,WSDL version 423,2013-10-08 22:14:00,
2013-10-08 17:19:00,74.7,33.4,29.68,NE,34,0.0,0.0,22,0.00,,,0.00,WSDL version 423,2013-10-08 22:19:00,
2013-10-08 17:24:00,74.1,33.3,29.68,NW,310,0.0,0.0,23,0.00,,,0.00,WSDL version 423,2013-10-08 22:24:00,
2013-10-08 17:29:00,73.2,33.2,29.68,NW,321,0.0,0.0,23,0.00,,,0.00,WSDL version 423,2013-10-08 22:29:00,
2013-10-08 17:34:00,72.7,34.5,29.68,NW,320,0.0,0.0,25,0.00,,,0.00,WSDL version 423,2013-10-08 22:34:00,
2013-10-08 17:39:00,72.2,34.9,29.68,NW,318,0.0,0.0,26,0.00,,,0.00,WSDL version 423,2013-10-08 22:39:00,
2013-10-08 17:44:00,71.7,36.0,29.68,NW,315,0.0,0.0,28,0.00,,,0.00,WSDL version 423,2013-10-08 22:44:00,
2013-10-08 17:49:00,71.3,36.6,29.68,NW,315,0.0,0.0,28,0.00,,,0.00,WSDL version 423,2013-10-08 22:49:00,
2013-10-08 17:54:00,71.0,36.5,29.68,NW,315,0.0,0.0,29,0.00,,,0.00,WSDL version 423,2013-10-08 22:54:00,
2013-10-08 17:59:00,70.6,36.9,29.68,NNW,338,0.0,0.0,29,0.00,,,0.00,WSDL version 423,2013-10-08 22:59:00,
2013-10-08 18:04:00,70.1,37.3,29.68,NNW,338,0.0,0.0,30,0.00,,,0.00,WSDL version 423,2013-10-08 23:04:00,
2013-10-08 18:09:00,69.7,36.9,29.68,NNW,338,0.0,0.0,30,0.00,,,0.00,WSDL version 423,2013-10-08 23:09:00,
2013-10-08 18:14:00,69.4,37.2,29.68,NNW,338,0.0,0.0,31,0.00,,,0.00,WSDL version 423,2013-10-08 23:14:00,
2013-10-08 18:19:00,69.2,37.7,29.71,NNW,338,0.0,0.0,32,0.00,,,0.00,WSDL version 423,2013-10-08 23:19:00,
2013-10-08 18:24:00,68.9,38.5,29.71,NNW,338,0.0,0.0,33,0.00,,,0.00,WSDL version 423,2013-10-08 23:24:00,
2013-10-08 18:29:00,68.5,39.7,29.71,NNW,338,0.0,0.0,36,0.00,,,0.00,WSDL version 423,2013-10-08 23:29:00,
2013-10-08 18:34:00,68.0,40.8,29.68,NNW,338,0.0,0.0,39,0.00,,,0.00,WSDL version 423,2013-10-08 23:34:00,
2013-10-08 18:39:00,67.3,41.4,29.68,NNW,338,0.0,0.0,39,0.00,,,0.00,WSDL version 423,2013-10-08 23:39:00,
2013-10-08 18:44:00,66.9,41.2,29.68,NNW,338,0.0,0.0,40,0.00,,,0.00,WSDL version 423,2013-10-08 23:44:00,
2013-10-08 18:49:00,66.2,41.4,29.71,NNW,338,0.0,0.0,41,0.00,,,0.00,WSDL version 423,2013-10-08 23:49:00,
2013-10-08 18:54:00,65.3,41.0,29.71,NNW,338,0.0,0.0,41,0.00,,,0.00,WSDL version 423,2013-10-08 23:54:00,
2013-10-08 18:59:00,65.0,41.3,29.71,NNW,338,0.0,0.0,42,0.00,,,0.00,WSDL version 423,2013-10-08 23:59:00,
2013-10-08 19:04:00,64.8,41.8,29.71,NNW,338,0.0,0.0,43,0.00,,,0.00,WSDL version 423,2013-10-09 00:04:00,
2013-10-08 19:09:00,64.6,41.8,29.71,NNW,338,0.0,0.0,43,0.00,,,0.00,WSDL version 423,2013-10-09 00:09:00,
2013-10-08 19:14:00,64.3,42.0,29.71,NNW,338,0.0,0.0,44,0.00,,,0.00,WSDL version 423,2013-10-09 00:14:00,
2013-10-08 19:19:00,64.0,42.3,29.71,NNW,338,0.0,0.0,45,0.00,,,0.00,WSDL version 423,2013-10-09 00:19:00,
2013-10-08 19:24:00,63.7,42.7,29.71,NNW,338,0.0,0.0,47,0.00,,,0.00,WSDL version 423,2013-10-09 00:24:00,
2013-10-08 19:29:00,63.5,43.0,29.71,NNW,338,0.0,0.0,48,0.00,,,0.00,WSDL version 423,2013-10-09 00:29:00,
2013-10-08 19:34:00,63.2,43.7,29.71,NNW,338,0.0,0.0,50,0.00,,,0.00,WSDL version 423,2013-10-09 00:34:00,
2013-10-08 19:39:00,63.0,43.9,29.71,NNW,338,0.0,0.0,50,0.00,,,0.00,WSDL version 423,2013-10-09 00:39:00,
2013-10-08 19:44:00,62.7,43.6,29.71,NNW,338,0.0,0.0,50,0.00,,,0.00,WSDL version 423,2013-10-09 00:44:00,
2013-10-08 19:49:00,62.4,43.9,29.71,NNW,338,0.0,0.0,51,0.00,,,0.00,WSDL version 423,2013-10-09 00:49:00,
2013-10-08 19:54:00,62.1,44.1,29.71,NNW,338,0.0,0.0,52,0.00,,,0.00,WSDL version 423,2013-10-09 00:54:00,
2013-10-08 19:59:00,61.9,43.8,29.71,NNW,338,0.0,0.0,52,0.00,,,0.00,WSDL version 423,2013-10-09 00:59:00,
2013-10-08 20:04:00,61.7,44.1,29.71,NNW,338,0.0,0.0,52,0.00,,,0.00,WSDL version 423,2013-10-09 01:04:00,
2013-10-08 20:09:00,61.5,44.0,29.71,NNW,338,0.0,0.0,52,0.00,,,0.00,WSDL version 423,2013-10-09 01:09:00,
2013-10-08 20:14:00,61.5,44.4,29.71,NNW,338,0.0,0.0,53,0.00,,,0.00,WSDL version 423,2013-10-09 01:14:00,
2013-10-08 20:24:00,61.6,44.8,29.71,NNW,338,0.0,0.0,55,0.00,,,0.00,WSDL version 423,2013-10-09 01:24:00,
2013-10-08 20:29:00,61.7,45.2,29.71,NNW,338,0.0,0.0,54,0.00,,,0.00,WSDL version 423,2013-10-09 01:29:00,
2013-10-08 20:34:00,61.7,45.0,29.71,NNW,338,0.0,0.0,54,0.00,,,0.00,WSDL version 423,2013-10-09 01:34:00,
2013-10-08 20:39:00,61.5,45.0,29.71,NNW,338,0.0,0.0,55,0.00,,,0.00,WSDL version 423,2013-10-09 01:39:00,
2013-10-08 20:44:00,61.5,45.1,29.71,NNW,338,0.0,0.0,55,0.00,,,0.00,WSDL version 423,2013-10-09 01:44:00,
2013-10-08 20:49:00,61.5,45.3,29.71,NNW,338,0.0,0.0,55,0.00,,,0.00,WSDL version 423,2013-10-09 01:49:00,
2013-10-08 20:54:00,61.5,45.3,29.71,NNW,338,0.0,0.0,55,0.00,,,0.00,WSDL version 423,2013-10-09 01:54:00,
2013-10-08 20:59:00,61.3,45.5,29.71,NNW,338,0.0,0.0,56,0.00,,,0.00,WSDL version 423,2013-10-09 01:59:00,
2013-10-08 21:04:00,61.1,45.4,29.71,NNW,338,0.0,0.0,57,0.00,,,0.00,WSDL version 423,2013-10-09 02:04:00,
2013-10-08 21:14:00,60.8,45.8,29.71,NNW,338,0.0,0.0,58,0.00,,,0.00,WSDL version 423,2013-10-09 02:14:00,
2013-10-08 21:19:00,60.6,46.1,29.71,NNW,338,0.0,0.0,59,0.00,,,0.00,WSDL version 423,2013-10-09 02:19:00,
2013-10-08 21:24:00,60.6,45.8,29.71,NNW,338,0.0,0.0,59,0.00,,,0.00,WSDL version 423,2013-10-09 02:24:00,
2013-10-08 21:29:00,60.5,45.8,29.71,NNW,338,0.0,0.0,58,0.00,,,0.00,WSDL version 423,2013-10-09 02:29:00,
2013-10-08 21:34:00,60.4,45.9,29.71,NNW,338,0.0,0.0,59,0.00,,,0.00,WSDL version 423,2013-10-09 02:34:00,
2013-10-08 21:39:00,60.4,45.8,29.71,NNW,338,0.0,0.0,59,0.00,,,0.00,WSDL version 423,2013-10-09 02:39:00,
2013-10-08 21:49:00,59.7,45.7,29.71,NNW,338,0.0,0.0,60,0.00,,,0.00,WSDL version 423,2013-10-09 02:49:00,
2013-10-08 21:54:00,59.7,46.1,29.71,NNW,338,0.0,0.0,61,0.00,,,0.00,WSDL version 423,2013-10-09 02:54:00,
2013-10-08 21:59:00,59.6,46.4,29.71,NNW,338,0.0,0.0,62,0.00,,,0.00,WSDL version 423,2013-10-09 02:59:00,
2013-10-08 22:04:00,59.7,46.5,29.71,NNW,338,0.0,0.0,62,0.00,,,0.00,WSDL version 423,2013-10-09 03:04:00,
2013-10-08 22:09:00,59.6,46.3,29.71,NNW,338,0.0,0.0,62,0.00,,,0.00,WSDL version 423,2013-10-09 03:09:00,
2013-10-08 22:14:00,59.4,46.5,29.71,NNW,338,0.0,0.0,62,0.00,,,0.00,WSDL version 423,2013-10-09 03:14:00,
2013-10-08 22:19:00,59.3,46.5,29.71,NNW,338,0.0,0.0,62,0.00,,,0.00,WSDL version 423,2013-10-09 03:19:00,
2013-10-08 22:24:00,59.2,46.4,29.71,NNW,338,0.0,0.0,62,0.00,,,0.00,WSDL version 423,2013-10-09 03:24:00,
2013-10-08 22:29:00,59.0,46.5,29.71,NNW,338,0.0,0.0,63,0.00,,,0.00,WSDL version 423,2013-10-09 03:29:00,
2013-10-08 22:34:00,58.8,46.4,29.71,NNW,338,0.0,0.0,63,0.00,,,0.00,WSDL version 423,2013-10-09 03:34:00,
2013-10-08 22:39:00,58.7,46.5,29.71,NNW,338,0.0,0.0,64,0.00,,,0.00,WSDL version 423,2013-10-09 03:39:00,
2013-10-08 22:44:00,58.4,46.4,29.71,NNW,338,0.0,0.0,64,0.00,,,0.00,WSDL version 423,2013-10-09 03:44:00,
2013-10-08 22:49:00,58.2,46.3,29.71,NNW,338,0.0,0.0,65,0.00,,,0.00,WSDL version 423,2013-10-09 03:49:00,
2013-10-08 22:54:00,57.8,46.3,29.71,NNW,338,0.0,0.0,66,0.00,,,0.00,WSDL version 423,2013-10-09 03:54:00,
2013-10-08 22:59:00,57.5,46.4,29.71,NNW,338,0.0,0.0,67,0.00,,,0.00,WSDL version 423,2013-10-09 03:59:00,
2013-10-08 23:04:00,57.4,46.6,29.71,NNW,338,0.0,0.0,67,0.00,,,0.00,WSDL version 423,2013-10-09 04:04:00,
2013-10-08 23:09:00,57.4,46.9,29.71,NNW,338,0.0,0.0,68,0.00,,,0.00,WSDL version 423,2013-10-09 04:09:00,
2013-10-08 23:14:00,57.3,47.2,29.71,NNW,338,0.0,0.0,69,0.00,,,0.00,WSDL version 423,2013-10-09 04:14:00,
2013-10-08 23:19:00,57.2,47.1,29.71,NNW,338,0.0,0.0,69,0.00,,,0.00,WSDL version 423,2013-10-09 04:19:00,
2013-10-08 23:24:00,57.2,47.0,29.71,NNW,338,0.0,0.0,69,0.00,,,0.00,WSDL version 423,2013-10-09 04:24:00,
2013-10-08 23:29:00,57.2,47.0,29.71,NNW,338,0.0,0.0,69,0.00,,,0.00,WSDL version 423,2013-10-09 04:29:00,
2013-10-08 23:34:00,57.2,47.2,29.71,NNW,338,0.0,0.0,69,0.00,,,0.00,WSDL version 423,2013-10-09 04:34:00,
2013-10-08 23:39:00,57.2,47.0,29.71,NNW,338,0.0,0.0,69,0.00,,,0.00,WSDL version 423,2013-10-09 04:39:00,
2013-10-08 23:44:00,57.2,47.0,29.71,NNW,338,0.0,0.0,69,0.00,,,0.00,WSDL version 423,2013-10-09 04:44:00,
2013-10-08 23:49:00,57.2,47.2,29.71,NNW,338,0.0,0.0,70,0.00,,,0.00,WSDL version 423,2013-10-09 04:49:00,
2013-10-08 23:54:00,57.2,47.4,29.71,NW,315,0.0,0.0,70,0.00,,,0.00,WSDL version 423,2013-10-09 04:54:00,
2013-10-08 23:59:00,57.2,47.3,29.71,NW,315,0.0,0.0,70,0.00,,,0.00,WSDL version 423,2013-10-09 04:59:00,